Location: Bosdarros
(43.2167°N, 0.3667°W)
Time: 11:59:17
(UTC+00:00)

FENGYUN 1C DEB - Pass Details

Date: 25 October 2021
Orbit: 805 x 871 km, 98.8° (Epoch: 26 November)

Event Time Altitude Azimuth Distance (km) Brightness Sun altitude
Exits shadow 20:30:15 24° 262° (W) 1,638 ? -38.0°
Maximum altitude 20:30:32 24° 266° (W) 1,634 ? -38.1°
Drops below altitude 10° 20:34:44 10° 319° (NW) 2,402 ? -38.8°
Sets 20:37:34 0° 334° (NNW) 3,345 ? -39.2°
